Location: Neuvy Saint Sepulchre
(46.5953°N, 1.8122°E)
Time: 16:07:22
(UTC+02:00)

ISS - Pass Details

Date: 06 May 2026
Orbit: 414 x 424 km, 51.6° (Epoch: 21 May)

Event Time Altitude Azimuth Distance (km) Brightness Sun altitude
Rises 05:39:30 0° 294° (WNW) 2,364 -0.2 -8.5°
Reaches altitude 10° 05:41:38 10° 288° (WNW) 1,499 -1.3 -8.2°
Maximum altitude 05:44:52 45° 215° (SW) 580 -3.4 -7.7°
Drops below altitude 10° 05:48:06 10° 141° (SE) 1,498 -0.9 -7.2°
Sets 05:50:15 0° 135° (SE) 2,361 0.2 -6.9°
